Temp
66 66 66 65 65 65 66 64 64 63 63 63 63 63 63 63 63 62 62 62 62 62 62 62 62 61 61 61 60 60 60 60 60 60 60 59 59 58 58 58 58 58
66 66 65 65 65 64 65 66 65 64 64 64 64 64 64 63 62 62 62 62 61 61 62 62 61 61 61 60 60 60 60 60 59 60 59 59 59 58 58 58 58 58
66 65 65 65 65 65 65 65 65 65 65 65 65 65 64 64 63 62 62 62 61 61 61 61 61 61 61 60 60 60 59 59 59 60 59 59 59 58 59 58 58 58
66 66 66 66 66 66 66 65 64 65 65 64 64 65 65 64 63 62 62 59 61 61 61 61 61 61 60 60 60 60 60 59 60 60 58 59 59 59 59 59 58 58
66 66 66 66 66 66 66 65 64 65 65 65 65 65 63 63 62 62 61 61 61 61 61 60 61 60 60 60 60 59 59 59 59 59 59 58 59 58 59 58 58 57
66 66 66 66 66 65 65 65 65 65 65 64 65 65 63 63 63 62 61 60 60 60 60 60 60 60 60 60 59 59 59 58 59 59 58 58 58 58 59 59 58 57
65 65 65 66 65 65 65 65 65 64 65 65 64 63 63 63 62 62 62 61 60 59 60 60 59 59 60 59 59 58 59 58 58 58 58 58 58 58 58 59 58 57
65 65 65 65 64 64 64 64 65 65 64 63 63 63 63 63 62 62 62 61 60 60 59 60 59 59 59 58 58 58 58 58 58 57 57 57 57 57 58 58 58 57
63 63 63 62 63 63 63 63 64 64 63 62 62 63 62 62 62 62 61 61 60 60 59 59 59 59 59 58 57 58 57 57 58 57 57 56 56 57 57 57 57 56
60 60 58 59 59 61 61 62 62 62 60 60 61 62 60 60 61 61 60 59 59 59 59 58 58 58 57 57 58 58 57 57 57 57 57 56 56 57 56 56 56 56
54 54 55 56 57 58 58 58 57 56 55 57 58 58 59 58 57 57 58 58 59 59 59 58 58 58 58 57 57 57 57 57 57 57 56 56 56 56 52 56 56 56
49 50 52 54 55 55 56 56 55 55 56 55 57 59 58 56 56 54 56 57 57 58 58 58 57 57 57 57 57 57 56 56 56 56 56 56 56 56 56 56 56 56
46 47 48 49 50 52 52 52 53 53 54 55 53 55 55 54 53 54 53 55 57 56 57 57 57 56 56 57 57 57 56 56 55 55 55 55 56 56 56 56 56 56
44 43 44 46 47 48 50 51 51 51 52 52 50 52 53 54 54 54 54 53 55 55 56 55 55 55 55 56 56 56 55 55 55 55 55 55 55 55 55 56 56 57
40 39 42 43 43 45 47 48 49 50 50 50 49 51 52 53 53 53 53 52 52 53 53 53 54 55 55 54 54 55 55 55 55 54 54 54 54 55 55 56 56 56
39 39 42 41 43 45 47 47 48 48 48 48 50 50 51 50 50 50 52 52 52 51 51 51 52 55 50 48 49 54 55 55 55 54 53 53 53 54 55 55 56 57
37 39 39 41 44 42 41 43 45 44 45 47 48 48 49 48 48 50 50 50 51 51 51 50 52 53 48 48 48 48 52 54 54 54 54 54 54 54 54 54 55 56
36 37 39 39 38 41 41 42 41 43 45 46 46 45 46 45 47 50 50 49 49 50 50 51 51 47 48 47 47 47 47 52 54 54 54 54 55 55 55 55 55 55
36 37 38 37 40 41 40 40 41 44 44 44 45 46 44 45 48 47 48 47 47 49 49 49 49 46 46 46 45 45 46 47 54 55 55 55 55 55 55 55 55 54
35 36 37 39 38 38 39 40 41 44 43 43 43 43 45 47 45 47 47 46 47 48 48 48 49 46 45 45 45 45 45 46 52 53 54 55 55 55 55 54 55 54
36 36 37 37 37 37 38 39 41 41 42 43 43 45 46 47 47 46 47 46 47 47 49 49 50 46 45 45 45 45 45 44 49 50 51 52 53 53 53 53 54 54
34 35 35 36 36 36 36 38 39 40 42 40 40 41 41 43 43 44 44 44 45 44 45 47 47 46 45 44 44 44 44 46 47 49 49 50 52 52 53 53 53 53
34 35 35 35 35 35 35 35 36 38 37 37 40 39 39 40 42 42 42 43 42 43 44 46 45 44 44 44 44 43 44 44 44 46 47 48 50 51 52 52 53 53
33 34 35 35 35 35 35 34 34 33 35 35 38 39 38 40 41 41 41 40 41 43 43 44 46 43 43 43 43 43 42 44 44 45 46 47 48 49 50 50 50 42
32 33 34 35 35 34 33 34 33 34 31 32 35 37 36 37 37 38 38 38 38 39 37 40 41 40 40 41 41 42 42 43 43 43 44 45 46 47 47 48 48 44
32 32 33 32 32 32 31 32 32 31 32 33 33 33 34 33 34 35 35 35 35 35 37 38 38 39 37 39 40 40 41 41 41 41 41 42 43 42 42 44 44 43
MSLP
1007.32 1007.56 1007.64 1007.80 1007.80 1007.88 1008.00 1008.28 1008.44 1008.76 1008.92 1009.12 1009.32 1009.20 1009.32 1009.16 1009.60 1010.04 1010.08 1010.32 1010.44 1010.52 1010.64 1010.80 1011.00 1011.28 1011.48 1011.72 1011.96 1012.24 1012.40 1012.44 1012.64 1012.80 1013.00 1013.16 1013.20 1013.40 1013.52 1013.60 1013.84 1013.88
1006.68 1006.76 1006.84 1007.00 1007.12 1007.24 1007.36 1007.48 1007.80 1008.08 1008.20 1008.36 1008.36 1008.44 1008.64 1008.96 1009.20 1009.48 1009.60 1009.72 1010.00 1010.12 1010.16 1010.48 1010.64 1010.80 1011.00 1011.28 1011.48 1011.76 1011.84 1012.00 1012.08 1012.20 1012.52 1012.56 1012.56 1012.88 1012.88 1013.04 1013.28 1013.40
1005.96 1006.12 1006.24 1006.40 1006.40 1006.48 1006.64 1006.84 1007.12 1007.36 1007.56 1007.48 1007.64 1007.92 1007.96 1008.20 1008.56 1008.80 1009.08 1009.36 1009.56 1009.68 1009.92 1010.04 1010.28 1010.40 1010.56 1010.76 1010.96 1011.24 1011.32 1011.40 1011.52 1011.60 1011.96 1011.92 1012.08 1012.32 1012.16 1012.56 1012.76 1012.84
1005.16 1005.24 1005.36 1005.44 1005.60 1005.76 1005.92 1006.36 1006.60 1006.80 1006.92 1007.12 1007.08 1007.00 1007.28 1007.60 1007.96 1008.32 1008.52 1008.80 1009.04 1009.16 1009.36 1009.64 1009.72 1009.88 1010.08 1010.24 1010.52 1010.68 1010.64 1010.76 1010.72 1011.20 1011.48 1011.48 1011.56 1011.64 1011.76 1012.00 1012.16 1012.32
1004.36 1004.52 1004.68 1004.84 1004.96 1005.16 1005.52 1005.80 1006.00 1006.12 1006.24 1006.16 1006.32 1006.64 1006.92 1007.20 1007.52 1007.72 1007.96 1008.24 1008.44 1008.60 1008.88 1009.08 1009.20 1009.36 1009.52 1009.76 1009.96 1010.08 1010.12 1010.24 1010.40 1010.76 1010.96 1010.92 1010.88 1011.24 1011.24 1011.64 1011.68 1011.80
1003.88 1004.00 1004.12 1004.32 1004.40 1004.72 1005.00 1005.12 1005.20 1005.40 1005.52 1005.76 1005.76 1006.00 1006.40 1006.72 1006.96 1007.12 1007.32 1007.60 1007.80 1008.04 1008.32 1008.52 1008.72 1008.80 1009.00 1009.16 1009.44 1009.52 1009.56 1009.84 1009.88 1010.24 1010.40 1010.36 1010.40 1010.72 1010.88 1011.04 1011.16 1011.24
1003.32 1003.52 1003.60 1003.76 1004.00 1004.24 1004.48 1004.48 1004.60 1004.80 1004.92 1004.96 1005.36 1005.76 1005.92 1006.20 1006.40 1006.48 1006.76 1007.00 1007.28 1007.60 1007.76 1007.92 1008.16 1008.32 1008.48 1008.76 1009.04 1009.04 1009.12 1009.24 1009.48 1009.80 1009.92 1009.84 1010.04 1010.24 1010.36 1010.48 1010.60 1010.68
1002.92 1002.92 1003.08 1003.32 1003.56 1003.72 1003.88 1003.92 1004.08 1004.24 1004.36 1004.80 1005.12 1005.12 1005.48 1005.72 1005.88 1006.04 1006.28 1006.56 1006.84 1007.00 1007.24 1007.44 1007.64 1007.84 1008.12 1008.44 1008.56 1008.64 1008.72 1008.88 1009.08 1009.28 1009.44 1009.44 1009.64 1009.72 1009.76 1009.92 1010.08 1010.24
1002.72 1002.76 1002.84 1003.00 1003.12 1003.20 1003.32 1003.40 1003.52 1003.72 1004.00 1004.40 1004.60 1004.76 1005.00 1005.20 1005.36 1005.60 1005.88 1006.12 1006.36 1006.52 1006.76 1007.00 1007.16 1007.40 1007.68 1007.96 1008.04 1008.12 1008.20 1008.36 1008.48 1008.72 1008.88 1008.96 1009.12 1009.04 1009.20 1009.44 1009.76 1009.76
1002.60 1002.52 1002.68 1002.72 1002.84 1002.76 1002.88 1002.92 1003.12 1003.36 1003.64 1003.96 1004.16 1004.44 1004.68 1004.80 1004.96 1005.20 1005.48 1005.72 1005.92 1006.04 1006.24 1006.44 1006.72 1006.92 1007.16 1007.36 1007.44 1007.56 1007.72 1007.84 1008.04 1008.16 1008.24 1008.36 1008.48 1008.56 1008.72 1009.00 1009.08 1009.24
1002.44 1002.48 1002.44 1002.44 1002.40 1002.44 1002.48 1002.64 1002.84 1003.08 1003.32 1003.48 1003.76 1004.00 1004.12 1004.40 1004.68 1004.84 1005.08 1005.32 1005.40 1005.52 1005.76 1005.96 1006.12 1006.36 1006.60 1006.80 1006.92 1007.04 1007.16 1007.32 1007.44 1007.60 1007.72 1007.84 1007.88 1008.00 1008.16 1008.36 1008.48 1008.52
1002.36 1002.44 1002.32 1002.20 1002.16 1002.24 1002.28 1002.44 1002.60 1002.80 1002.92 1003.08 1003.24 1003.44 1003.72 1004.00 1004.28 1004.56 1004.72 1004.84 1004.96 1005.08 1005.20 1005.36 1005.56 1005.72 1005.92 1006.04 1006.20 1006.44 1006.64 1006.80 1006.92 1007.08 1007.20 1007.32 1007.40 1007.48 1007.64 1007.76 1007.92 1007.96
1002.32 1002.36 1002.40 1002.40 1002.32 1002.24 1002.24 1002.28 1002.36 1002.48 1002.64 1002.76 1002.96 1003.12 1003.40 1003.72 1003.96 1004.16 1004.36 1004.44 1004.48 1004.64 1004.72 1004.80 1005.00 1005.24 1005.40 1005.52 1005.68 1005.88 1006.12 1006.36 1006.52 1006.64 1006.76 1006.88 1006.92 1007.00 1007.12 1007.32 1007.44 1007.52
1002.40 1002.52 1002.52 1002.48 1002.44 1002.36 1002.32 1002.20 1002.24 1002.32 1002.40 1002.52 1002.80 1002.96 1003.12 1003.24 1003.48 1003.68 1003.80 1004.04 1004.00 1004.12 1004.20 1004.40 1004.60 1004.76 1004.92 1005.00 1005.16 1005.36 1005.64 1005.88 1006.04 1006.20 1006.36 1006.48 1006.56 1006.68 1006.80 1006.88 1006.96 1007.00
1002.20 1002.28 1002.36 1002.36 1002.32 1002.28 1002.20 1002.20 1002.20 1002.20 1002.28 1002.36 1002.48 1002.56 1002.64 1002.72 1002.92 1003.16 1003.44 1003.64 1003.80 1003.84 1003.96 1004.12 1004.24 1004.28 1004.36 1004.56 1004.80 1005.00 1005.20 1005.40 1005.56 1005.76 1005.96 1006.12 1006.24 1006.32 1006.36 1006.40 1006.48 1006.48
1001.84 1001.92 1002.00 1002.08 1002.16 1002.16 1002.12 1002.12 1002.12 1002.12 1002.16 1002.12 1002.12 1002.16 1002.20 1002.36 1002.56 1002.76 1002.92 1003.04 1003.24 1003.48 1003.68 1003.84 1003.92 1003.88 1003.84 1004.00 1004.20 1004.40 1004.64 1004.84 1005.08 1005.28 1005.52 1005.68 1005.84 1005.88 1005.88 1005.92 1005.88 1005.92
1001.56 1001.52 1001.68 1001.80 1001.92 1002.00 1002.04 1002.08 1002.08 1002.16 1002.20 1002.16 1002.08 1002.08 1002.08 1002.16 1002.32 1002.40 1002.48 1002.56 1002.72 1002.92 1003.20 1003.36 1003.40 1003.32 1003.40 1003.68 1003.92 1004.08 1004.28 1004.48 1004.68 1004.84 1005.04 1005.16 1005.28 1005.36 1005.32 1005.36 1005.40 1005.40
1001.08 1001.16 1001.28 1001.40 1001.68 1001.72 1001.76 1001.88 1001.96 1002.08 1002.08 1002.08 1002.08 1002.08 1002.08 1002.24 1002.24 1002.12 1002.16 1002.40 1002.56 1002.68 1002.72 1002.76 1002.84 1002.88 1003.12 1003.36 1003.60 1003.76 1004.00 1004.12 1004.24 1004.40 1004.52 1004.64 1004.68 1004.68 1004.68 1004.76 1004.80 1004.88
1000.84 1000.76 1000.80 1001.04 1001.28 1001.44 1001.68 1001.84 1001.96 1002.04 1002.16 1002.28 1002.24 1002.32 1002.52 1002.48 1002.28 1002.40 1002.40 1002.44 1002.56 1002.56 1002.56 1002.56 1002.64 1002.72 1003.00 1003.24 1003.44 1003.60 1003.80 1004.04 1004.00 1003.96 1004.04 1004.04 1004.12 1004.16 1004.20 1004.32 1004.40 1004.48
1001.04 1000.80 1000.68 1000.80 1001.24 1001.72 1002.04 1002.04 1002.16 1002.12 1002.32 1002.52 1002.52 1002.52 1002.44 1002.40 1002.40 1002.44 1002.48 1002.56 1002.56 1002.48 1002.44 1002.48 1002.48 1002.56 1002.80 1003.00 1003.16 1003.32 1003.52 1003.76 1003.84 1003.80 1003.72 1003.68 1003.72 1003.76 1003.84 1003.92 1003.96 1004.00
1001.16 1001.36 1001.24 1001.16 1001.32 1001.40 1001.52 1001.60 1001.72 1001.92 1002.16 1002.32 1002.44 1002.36 1002.32 1002.24 1002.28 1002.32 1002.36 1002.40 1002.44 1002.48 1002.44 1002.36 1002.36 1002.52 1002.64 1002.72 1002.80 1003.00 1003.16 1003.40 1003.56 1003.60 1003.52 1003.44 1003.36 1003.40 1003.48 1003.56 1003.56 1003.52
1001.56 1001.36 1001.44 1001.60 1001.60 1001.64 1001.48 1001.24 1001.44 1001.68 1001.88 1002.24 1002.40 1002.44 1002.52 1002.48 1002.44 1002.48 1002.44 1002.48 1002.48 1002.52 1002.48 1002.36 1002.44 1002.56 1002.64 1002.72 1002.84 1003.00 1003.16 1003.36 1003.44 1003.40 1003.32 1003.28 1003.20 1003.12 1003.12 1003.12 1003.16 1003.28
1001.64 1001.60 1001.68 1001.72 1001.96 1001.96 1001.80 1001.68 1001.52 1001.72 1002.16 1002.52 1002.36 1002.44 1002.48 1002.56 1002.56 1002.52 1002.60 1002.60 1002.64 1002.68 1002.68 1002.56 1002.60 1002.72 1002.80 1002.84 1002.92 1003.04 1003.16 1003.28 1003.36 1003.36 1003.28 1003.08 1002.88 1002.84 1002.84 1002.84 1002.88 1002.96
1001.88 1001.48 1001.32 1001.68 1001.88 1001.56 1001.52 1001.72 1002.12 1002.40 1002.40 1002.76 1002.44 1002.36 1002.44 1002.52 1002.68 1002.76 1002.84 1002.96 1002.92 1002.84 1002.88 1002.80 1002.68 1002.84 1003.00 1003.00 1003.08 1003.16 1003.32 1003.36 1003.40 1003.40 1003.20 1003.12 1002.88 1002.88 1002.88 1002.88 1002.80 1002.92
1002.52 1001.76 1001.40 1001.52 1001.56 1001.64 1001.84 1001.64 1001.76 1002.04 1002.56 1002.88 1002.92 1003.04 1003.00 1003.20 1003.28 1003.20 1003.32 1003.44 1003.48 1003.44 1003.40 1003.40 1003.24 1003.28 1003.40 1003.36 1003.32 1003.36 1003.44 1003.52 1003.56 1003.52 1003.36 1003.08 1003.04 1002.88 1002.84 1002.84 1002.72 1002.80
1003.16 1002.52 1002.24 1002.16 1002.16 1002.28 1002.44 1002.44 1002.68 1002.52 1002.44 1002.48 1002.72 1003.04 1003.08 1003.32 1003.56 1003.72 1003.68 1003.72 1003.80 1003.76 1003.68 1003.64 1003.60 1003.44 1003.48 1003.52 1003.52 1003.48 1003.56 1003.68 1003.72 1003.72 1003.44 1003.36 1003.36 1003.28 1003.20 1003.00 1002.92 1002.84
Wind_Speed
17 15 16 15 15 15 15 15 13 13 13 12 12 14 14 14 11 11 14 14 15 15 15 15 14 14 13 12 12 12 12 13 12 11 13 13 13 14 14 14 13 13
19 18 16 15 14 13 14 14 14 13 13 13 13 13 12 11 11 12 14 15 14 15 15 14 14 14 14 12 12 13 12 12 14 10 12 15 14 12 15 15 14 12
18 18 18 18 17 17 17 15 13 13 13 14 14 12 13 11 12 12 12 13 14 15 14 13 13 14 13 13 12 12 13 13 14 12 12 14 12 13 13 12 12 14
19 20 19 19 18 17 15 13 13 12 12 13 14 14 12 10 11 12 12 13 13 14 13 13 14 13 13 14 13 13 14 14 14 11 12 11 12 13 13 11 12 12
19 19 18 17 16 16 14 13 14 14 15 16 14 12 12 11 11 12 12 12 13 14 12 14 14 14 14 13 14 13 13 13 13 12 12 14 12 11 11 10 12 14
15 15 16 16 16 15 15 15 15 15 16 15 16 12 10 11 12 12 13 13 13 13 13 13 13 14 14 14 13 13 13 12 12 12 14 15 13 11 10 11 12 14
16 15 16 15 15 14 15 15 15 15 14 14 11 11 11 12 12 13 13 13 13 13 14 14 14 14 13 12 12 14 13 13 12 12 14 14 12 12 12 12 13 14
15 13 14 13 14 14 15 15 14 14 14 11 11 12 11 12 13 12 11 12 12 13 13 13 13 13 12 11 13 14 14 11 12 13 13 14 12 13 13 11 12 13
12 12 11 12 14 13 14 15 14 14 11 12 12 11 10 11 12 11 11 11 11 12 12 12 13 12 11 12 13 14 15 13 13 13 14 14 14 15 14 12 12 13
11 10 10 11 12 12 14 14 13 11 9 10 11 10 10 10 10 10 10 10 12 12 12 12 12 12 12 12 14 14 14 14 13 13 14 14 15 15 13 12 13 13
9 8 9 11 12 11 13 11 10 9 8 10 10 10 11 10 9 8 9 10 12 12 12 12 12 12 13 13 13 13 14 14 14 13 13 14 14 14 13 13 14 15
9 8 10 10 11 10 10 9 9 8 9 9 10 12 10 8 9 8 9 11 11 11 11 12 12 12 13 14 14 13 13 13 13 13 13 14 13 13 13 13 13 14
7 8 7 7 7 8 7 7 8 8 9 10 8 9 8 8 8 9 9 10 11 11 12 12 12 11 12 13 13 12 13 13 12 12 12 12 12 13 12 11 12 12
5 5 6 6 6 6 6 7 7 7 8 7 6 8 9 9 10 11 10 10 11 11 11 10 10 11 11 12 12 12 11 12 12 12 12 11 11 11 11 11 12 12
5 5 5 6 6 6 6 7 7 7 7 7 8 9 9 10 9 9 9 9 9 9 9 8 10 11 11 11 11 11 11 11 12 12 11 11 11 11 11 11 11 12
5 5 5 5 5 6 6 6 6 7 7 7 8 9 9 8 8 8 9 10 10 9 8 8 9 9 12 17 15 11 11 11 10 10 10 10 11 11 11 11 12 12
4 4 4 4 5 5 5 5 6 6 6 7 7 8 9 8 8 9 10 9 10 9 9 9 10 10 16 15 16 16 11 9 10 10 10 10 11 12 12 12 11 12
4 3 3 4 4 5 5 5 5 5 6 7 6 7 7 5 7 9 9 7 8 8 9 10 10 12 15 14 15 16 14 10 9 9 9 10 11 12 12 11 12 12
3 4 4 4 5 4 4 3 4 4 5 4 6 5 2 5 7 5 6 6 6 8 9 8 8 10 12 12 13 13 14 12 8 9 9 10 10 11 11 11 10 11
3 3 4 4 2 1 1 2 2 4 4 4 3 2 5 6 5 6 5 5 6 7 7 6 8 8 11 12 13 14 14 13 9 10 10 10 10 10 10 10 11 12
2 3 4 4 3 3 3 3 4 4 4 4 3 4 5 6 5 5 6 5 5 6 6 7 6 6 10 12 12 13 13 12 7 8 8 8 9 9 9 8 9 10
3 4 4 4 4 3 3 4 4 4 4 3 3 4 3 1 2 2 4 4 4 4 4 6 4 4 6 7 8 8 8 6 5 6 7 8 9 9 9 8 8 8
2 2 4 4 3 3 4 4 3 3 3 1 2 3 3 3 3 3 2 3 3 3 4 5 4 3 1 2 2 2 1 2 3 4 6 8 11 10 10 10 10 10
4 1 2 3 2 3 4 4 2 2 2 2 3 4 4 5 4 4 3 3 4 5 5 7 7 4 5 7 7 7 5 4 4 5 7 8 9 9 8 8 9 12
6 4 1 1 3 4 2 3 3 3 1 0 2 1 3 2 2 2 3 3 3 4 6 6 7 6 6 7 8 8 6 4 5 6 9 10 9 10 8 9 9 9
5 5 5 4 3 4 3 2 1 1 1 0 0 0 1 1 0 1 3 4 3 3 5 5 7 7 5 7 8 9 9 5 4 7 9 9 7 8 8 8 7 6
Wind_Direction
220 220 223 222 224 223 222 220 218 217 216 215 216 220 219 223 217 208 214 215 216 218 218 218 215 217 218 215 213 216 220 221 225 221 221 223 227 225 228 227 223 225
219 219 222 223 226 224 226 222 220 216 219 217 220 223 223 222 213 208 212 214 216 220 220 217 217 216 216 214 212 214 220 220 224 217 222 223 226 223 230 227 226 227
220 220 221 221 222 223 221 220 218 217 219 220 221 221 223 215 214 210 214 213 215 219 219 218 218 217 215 215 213 215 220 220 224 217 219 226 224 224 229 224 228 224
221 220 221 222 222 224 221 218 217 219 221 224 221 220 218 215 210 209 212 211 215 218 217 216 218 216 214 215 212 218 221 222 224 215 221 228 225 225 228 222 227 228
220 221 222 223 224 225 222 218 218 218 220 224 225 221 217 213 208 211 210 211 213 218 215 216 217 217 214 214 212 219 221 223 222 215 221 228 226 220 227 220 225 229
227 225 223 223 223 221 220 220 220 220 222 224 224 219 216 212 212 212 210 210 211 214 215 215 216 218 214 214 213 219 221 220 221 213 221 229 229 220 225 221 224 229
223 220 223 221 223 221 221 223 224 224 224 225 224 221 214 214 214 215 212 212 211 211 214 215 215 217 214 214 214 220 222 222 220 216 222 229 227 227 223 224 225 230
226 224 223 220 220 219 221 223 224 224 224 222 221 222 213 217 218 218 215 212 211 213 215 216 217 218 214 210 216 219 223 219 220 218 223 229 226 230 226 223 224 230
231 229 224 221 220 221 222 222 224 225 219 219 221 222 215 216 220 217 215 211 213 216 215 215 217 217 212 211 216 219 220 219 218 218 220 224 226 229 228 222 224 228
233 230 224 222 221 222 223 223 224 223 214 218 219 219 216 219 219 215 211 210 215 217 215 215 214 215 213 212 217 218 220 221 218 218 220 223 226 229 227 221 223 227
238 229 225 223 223 221 225 222 221 215 204 208 210 215 217 214 216 212 212 210 216 216 216 215 215 213 213 214 217 218 219 220 220 219 220 223 225 227 224 221 222 225
242 238 233 229 227 226 226 220 215 208 208 211 208 217 215 213 211 209 210 216 217 218 217 216 214 212 212 215 215 216 218 220 221 220 222 223 226 226 224 222 223 226
241 240 243 245 241 236 228 219 213 211 209 213 206 212 207 208 209 209 212 215 219 217 218 216 214 211 214 216 218 216 216 218 220 223 224 224 227 227 227 225 225 228
247 251 252 251 250 244 234 227 219 214 214 211 194 202 208 209 206 208 213 211 219 218 219 213 213 212 214 216 216 214 213 217 219 222 224 226 228 230 228 228 227 227
238 243 243 249 244 240 234 229 222 216 209 203 199 205 208 209 207 206 209 214 221 220 218 212 212 216 213 212 213 215 213 218 219 221 222 226 228 229 228 229 230 229
232 238 239 240 244 240 236 230 223 218 210 206 207 207 208 206 203 205 206 211 214 217 216 212 217 220 218 212 208 208 210 215 217 219 219 222 225 229 232 230 231 231
229 235 229 240 238 242 243 232 227 220 215 217 217 210 208 206 200 205 210 210 208 208 211 214 219 221 218 212 211 211 210 212 214 219 216 221 224 227 232 231 232 232
216 214 216 234 239 238 230 228 227 220 221 221 221 220 221 206 208 214 213 208 208 211 214 217 222 221 216 213 209 211 210 213 216 219 219 222 224 228 232 233 234 233
200 189 204 216 225 230 244 246 233 235 239 235 232 240 217 213 225 220 221 214 207 213 222 224 229 223 217 215 214 214 214 214 226 226 225 228 229 231 234 234 234 235
253 215 214 222 215 246 320 276 266 245 251 253 251 212 212 226 226 224 227 217 216 220 227 231 231 224 209 211 214 213 214 210 224 229 233 236 235 234 234 232 230 233
310 294 278 263 241 205 195 213 218 237 241 241 234 228 222 222 218 220 223 217 220 223 231 236 237 213 204 208 210 207 208 204 217 223 234 238 237 232 229 230 237 239
326 295 279 285 280 259 220 221 214 214 223 238 247 264 280 271 260 234 226 230 235 233 242 252 253 218 213 216 220 217 213 216 220 227 231 238 241 240 238 236 236 238
311 278 290 289 296 284 275 271 251 251 252 224 228 255 262 271 255 248 245 242 261 260 260 270 269 247 246 273 273 268 263 247 247 255 256 256 257 258 259 260 258 254
329 242 259 287 283 250 255 269 285 286 249 191 203 226 234 235 251 276 292 296 281 273 269 275 273 266 261 260 257 247 230 241 245 249 255 254 260 258 258 259 253 251
334 5 30 312 299 291 297 290 287 279 302 154 231 247 259 332 331 285 299 312 309 299 309 288 282 292 289 279 277 275 269 266 261 259 262 257 261 264 260 258 261 258
351 5 24 29 346 319 314 276 287 315 332 176 226 127 305 22 34 337 293 290 306 302 284 279 284 282 274 268 271 273 265 259 257 257 258 266 266 270 275 269 266 268